SBI007 USRR-USTR

Flight info

Callsign SBI007
Flight time 0h 58m
Altitude 34000
Route K0800F340 ANIKI1W ANIKI T797 NERUG NERUG1P
Aircraft A320/M-SDE3FGHIRWY/LB1

Departure

Time 2026-05-05 13:07
Airport Surgut International Airport (USRR)

Arrival

Time 2026-05-05 14:05
Airport Roshchino International Airport (USTR)
Time Latitude Longitude Altitude Speed Heading
2026-05-05 13:05 61.34393 73.42540 202 ft 0 kts 271°
2026-05-05 13:05 61.34393 73.42536 202 ft 0 kts 271°
2026-05-05 13:06 61.34393 73.42527 211 ft 1 kts 271°
2026-05-05 13:06 61.34394 73.42314 201 ft 47 kts 270°
2026-05-05 13:06 61.34390 73.41126 213 ft 114 kts 270°
2026-05-05 13:06 61.34386 73.39115 231 ft 162 kts 269°
2026-05-05 13:07 61.34373 73.36753 907 ft 165 kts 270°
2026-05-05 13:07 61.34171 73.34404 1580 ft 170 kts 249°
2026-05-05 13:07 61.33667 73.32009 1963 ft 191 kts 248°
2026-05-05 13:07 61.33079 73.29341 2270 ft 215 kts 246°
2026-05-05 13:08 61.32402 73.26366 2638 ft 239 kts 246°
2026-05-05 13:08 61.31656 73.23102 3223 ft 257 kts 245°
2026-05-05 13:08 61.30882 73.19711 4153 ft 260 kts 245°
2026-05-05 13:08 61.30117 73.16352 5136 ft 261 kts 246°
2026-05-05 13:09 61.29340 73.12923 6081 ft 263 kts 246°
2026-05-05 13:09 61.28559 73.09462 6958 ft 265 kts 247°
2026-05-05 13:09 61.27773 73.05975 7843 ft 267 kts 247°
2026-05-05 13:09 61.26979 73.02465 8719 ft 270 kts 247°
2026-05-05 13:10 61.26175 72.98918 9578 ft 272 kts 247°
2026-05-05 13:10 61.25363 72.95338 10301 ft 279 kts 247°
2026-05-05 13:10 61.24501 72.91525 10547 ft 303 kts 247°
2026-05-05 13:10 61.23587 72.87477 10786 ft 324 kts 247°
2026-05-05 13:11 61.22613 72.83188 11361 ft 332 kts 247°
2026-05-05 13:11 61.21617 72.78839 12068 ft 335 kts 247°
2026-05-05 13:11 61.20609 72.74459 12794 ft 338 kts 247°
2026-05-05 13:11 61.19588 72.70037 13531 ft 341 kts 247°
2026-05-05 13:12 61.18561 72.65587 14198 ft 344 kts 247°
2026-05-05 13:12 61.17528 72.61099 14829 ft 347 kts 248°
2026-05-05 13:12 61.16488 72.56570 15461 ft 350 kts 248°
2026-05-05 13:12 61.15452 72.52065 16080 ft 353 kts 248°
2026-05-05 13:13 61.14389 72.47468 16694 ft 356 kts 248°
2026-05-05 13:13 61.13315 72.42829 17298 ft 359 kts 248°
2026-05-05 13:13 61.12231 72.38156 17892 ft 362 kts 248°
2026-05-05 13:13 61.11133 72.33446 18431 ft 365 kts 248°
2026-05-05 13:14 61.10022 72.28696 18938 ft 368 kts 248°
2026-05-05 13:14 61.08904 72.23923 19435 ft 371 kts 248°
2026-05-05 13:14 61.07774 72.19109 19927 ft 374 kts 248°
2026-05-05 13:14 61.06650 72.14330 20420 ft 376 kts 248°
2026-05-05 13:15 61.05500 72.09447 20907 ft 379 kts 248°
2026-05-05 13:15 61.04340 72.04542 21387 ft 382 kts 248°
2026-05-05 13:15 61.03170 71.99606 21847 ft 385 kts 248°
2026-05-05 13:15 61.01988 71.94636 22310 ft 387 kts 248°
2026-05-05 13:16 61.00730 71.89685 22758 ft 393 kts 242°
2026-05-05 13:16 60.99068 71.85158 23207 ft 401 kts 231°
2026-05-05 13:16 60.96993 71.81243 23608 ft 408 kts 224°
2026-05-05 13:16 60.94826 71.77555 23983 ft 411 kts 224°
2026-05-05 13:17 60.92622 71.73802 24357 ft 413 kts 224°
2026-05-05 13:17 60.90405 71.70030 24726 ft 415 kts 224°
2026-05-05 13:17 60.88177 71.66241 25078 ft 417 kts 224°
2026-05-05 13:17 60.85937 71.62434 25432 ft 419 kts 224°
2026-05-05 13:18 60.83686 71.58616 25781 ft 421 kts 224°
2026-05-05 13:18 60.81424 71.54776 26136 ft 423 kts 224°
2026-05-05 13:18 60.79153 71.50912 26485 ft 425 kts 224°
2026-05-05 13:18 60.76873 71.47028 26835 ft 427 kts 224°
2026-05-05 13:19 60.74615 71.43191 27165 ft 429 kts 224°
2026-05-05 13:19 60.72306 71.39281 27507 ft 432 kts 224°
2026-05-05 13:19 60.69989 71.35370 27833 ft 434 kts 224°
2026-05-05 13:19 60.67654 71.31440 28152 ft 436 kts 223°
2026-05-05 13:20 60.65306 71.27498 28450 ft 438 kts 223°
2026-05-05 13:20 60.62949 71.23550 28740 ft 440 kts 223°
2026-05-05 13:20 60.60577 71.19585 29033 ft 442 kts 223°
2026-05-05 13:20 60.58194 71.15611 29318 ft 444 kts 223°
2026-05-05 13:21 60.55831 71.11677 29598 ft 446 kts 223°
2026-05-05 13:21 60.53424 71.07675 29874 ft 448 kts 223°
2026-05-05 13:21 60.51011 71.03669 30191 ft 448 kts 223°
2026-05-05 13:21 60.48603 70.99680 30532 ft 446 kts 223°
2026-05-05 13:22 60.46201 70.95705 30881 ft 445 kts 223°
2026-05-05 13:22 60.43802 70.91741 31219 ft 444 kts 222°
2026-05-05 13:22 60.41408 70.87794 31562 ft 443 kts 222°
2026-05-05 13:22 60.39049 70.83916 31900 ft 443 kts 222°
2026-05-05 13:23 60.36662 70.79996 32238 ft 442 kts 222°
2026-05-05 13:23 60.34279 70.76095 32579 ft 441 kts 222°
2026-05-05 13:23 60.31898 70.72209 32925 ft 440 kts 222°
2026-05-05 13:23 60.29521 70.68332 33254 ft 439 kts 222°
2026-05-05 13:24 60.27145 70.64464 33589 ft 438 kts 222°
2026-05-05 13:24 60.24777 70.60621 33922 ft 437 kts 222°
2026-05-05 13:24 60.22406 70.56778 34203 ft 437 kts 222°
2026-05-05 13:24 60.20042 70.52952 34475 ft 436 kts 222°
2026-05-05 13:25 60.17709 70.49183 34727 ft 436 kts 222°
2026-05-05 13:25 60.15348 70.45370 34979 ft 436 kts 222°
2026-05-05 13:25 60.12987 70.41558 35217 ft 435 kts 222°
2026-05-05 13:25 60.10629 70.37758 35457 ft 435 kts 222°
2026-05-05 13:26 60.08265 70.33963 35687 ft 435 kts 221°
2026-05-05 13:26 60.05901 70.30184 35850 ft 435 kts 221°
2026-05-05 13:26 60.01161 70.22645 35893 ft 435 kts 221°
2026-05-05 13:27 59.96439 70.15134 35888 ft 439 kts 221°
2026-05-05 13:27 59.91662 70.07540 35893 ft 440 kts 221°
2026-05-05 13:28 59.86871 69.99955 35891 ft 440 kts 221°
2026-05-05 13:28 59.82072 69.92409 35895 ft 440 kts 221°
2026-05-05 13:29 59.77299 69.84939 35889 ft 440 kts 221°
2026-05-05 13:29 59.72481 69.77433 35890 ft 440 kts 221°
2026-05-05 13:30 59.67663 69.69945 35898 ft 440 kts 221°
2026-05-05 13:30 59.62837 69.62469 35896 ft 440 kts 221°
2026-05-05 13:31 59.58041 69.55080 35895 ft 441 kts 220°
2026-05-05 13:31 59.53207 69.47649 35897 ft 441 kts 220°
2026-05-05 13:32 59.48371 69.40220 35903 ft 441 kts 220°
2026-05-05 13:32 59.43528 69.32798 35900 ft 441 kts 220°
2026-05-05 13:33 59.38708 69.25464 35904 ft 441 kts 220°
2026-05-05 13:33 59.33848 69.18100 35903 ft 441 kts 220°
2026-05-05 13:34 59.28989 69.10754 35903 ft 441 kts 220°
2026-05-05 13:34 59.24122 69.03440 35903 ft 441 kts 220°
2026-05-05 13:35 59.19282 68.96188 35902 ft 442 kts 220°
2026-05-05 13:35 59.14473 68.88760 35901 ft 440 kts 226°
2026-05-05 13:36 59.10135 68.80380 35898 ft 439 kts 227°
2026-05-05 13:36 59.05800 68.72020 35894 ft 439 kts 227°
2026-05-05 13:37 59.01482 68.63745 35892 ft 439 kts 227°
2026-05-05 13:37 58.97120 68.55432 35890 ft 440 kts 226°
2026-05-05 13:38 58.92755 68.47140 35892 ft 440 kts 226°
2026-05-05 13:38 58.88381 68.38853 35893 ft 440 kts 226°
2026-05-05 13:39 58.84026 68.30648 35894 ft 440 kts 226°
2026-05-05 13:39 58.79639 68.22394 35893 ft 441 kts 226°
2026-05-05 13:40 58.75240 68.14151 35891 ft 441 kts 226°
2026-05-05 13:40 58.70827 68.05949 35895 ft 441 kts 226°
2026-05-05 13:41 58.66410 67.97748 35896 ft 441 kts 226°
2026-05-05 13:41 58.62024 67.89605 35891 ft 442 kts 226°
2026-05-05 13:42 58.57597 67.81427 35891 ft 442 kts 226°
2026-05-05 13:42 58.53162 67.73275 35893 ft 442 kts 226°
2026-05-05 13:43 58.48716 67.65135 35892 ft 442 kts 226°
2026-05-05 13:43 58.44266 67.57016 35892 ft 443 kts 225°
2026-05-05 13:44 58.39835 67.48970 35892 ft 443 kts 225°
2026-05-05 13:44 58.35368 67.40876 35894 ft 443 kts 225°
2026-05-05 13:45 58.33127 67.36834 35535 ft 446 kts 225°
2026-05-05 13:45 58.30868 67.32768 34775 ft 448 kts 225°
2026-05-05 13:45 58.28592 67.28668 33871 ft 454 kts 225°
2026-05-05 13:45 58.26286 67.24518 32849 ft 458 kts 225°
2026-05-05 13:46 58.23999 67.20408 31893 ft 461 kts 224°
2026-05-05 13:46 58.21657 67.16210 30895 ft 465 kts 224°
2026-05-05 13:46 58.19301 67.12002 30110 ft 464 kts 224°
2026-05-05 13:46 58.16965 67.07843 29421 ft 458 kts 224°
2026-05-05 13:47 58.14655 67.03737 28776 ft 452 kts 224°
2026-05-05 13:47 58.12374 66.99690 28137 ft 447 kts 224°
2026-05-05 13:47 58.10097 66.95735 27351 ft 444 kts 220°
2026-05-05 13:47 58.07533 66.92412 26481 ft 447 kts 213°
2026-05-05 13:48 58.04941 66.89249 25902 ft 442 kts 214°
2026-05-05 13:48 58.02408 66.86147 25290 ft 438 kts 214°
2026-05-05 13:48 57.99855 66.83022 24667 ft 435 kts 214°
2026-05-05 13:48 57.97322 66.79930 24085 ft 432 kts 214°
2026-05-05 13:49 57.94805 66.76870 23499 ft 430 kts 213°
2026-05-05 13:49 57.92303 66.73837 22887 ft 426 kts 214°
2026-05-05 13:49 57.89828 66.70841 22354 ft 420 kts 214°
2026-05-05 13:49 57.87387 66.67886 21858 ft 415 kts 214°
2026-05-05 13:50 57.84974 66.64970 21363 ft 410 kts 214°
2026-05-05 13:50 57.82588 66.62090 20886 ft 405 kts 214°
2026-05-05 13:50 57.80257 66.59279 20421 ft 401 kts 214°
2026-05-05 13:50 57.77918 66.56458 19936 ft 398 kts 214°
2026-05-05 13:51 57.75596 66.53662 19460 ft 396 kts 214°
2026-05-05 13:51 57.73283 66.50883 18963 ft 394 kts 213°
2026-05-05 13:51 57.70982 66.48125 18473 ft 392 kts 213°
2026-05-05 13:51 57.68687 66.45377 17935 ft 392 kts 213°
2026-05-05 13:52 57.66393 66.42637 17419 ft 389 kts 213°
2026-05-05 13:52 57.64116 66.39930 16906 ft 387 kts 213°
2026-05-05 13:52 57.61854 66.37246 16394 ft 385 kts 213°
2026-05-05 13:52 57.59625 66.34607 15893 ft 384 kts 213°
2026-05-05 13:53 57.57376 66.31945 15377 ft 382 kts 213°
2026-05-05 13:53 57.55137 66.29298 14874 ft 381 kts 213°
2026-05-05 13:53 57.52905 66.26656 14355 ft 380 kts 213°
2026-05-05 13:53 57.50676 66.24019 13848 ft 379 kts 213°
2026-05-05 13:54 57.48454 66.21398 13289 ft 378 kts 213°
2026-05-05 13:54 57.46242 66.18795 12768 ft 375 kts 213°
2026-05-05 13:54 57.44044 66.16214 12249 ft 372 kts 213°
2026-05-05 13:54 57.41914 66.13714 11733 ft 363 kts 213°
2026-05-05 13:55 57.39807 66.11244 11215 ft 355 kts 213°
2026-05-05 13:55 57.37737 66.08821 10703 ft 348 kts 214°
2026-05-05 13:55 57.35717 66.06458 10413 ft 336 kts 214°
2026-05-05 13:55 57.33789 66.04209 10286 ft 319 kts 214°
2026-05-05 13:56 57.31950 66.02062 10088 ft 308 kts 214°
2026-05-05 13:56 57.30157 65.99974 9822 ft 301 kts 214°
2026-05-05 13:56 57.28385 65.97905 9683 ft 301 kts 214°
2026-05-05 13:56 57.26613 65.95838 9527 ft 301 kts 214°
2026-05-05 13:57 57.24869 65.93809 9175 ft 300 kts 214°
2026-05-05 13:57 57.23100 65.91756 8762 ft 300 kts 213°
2026-05-05 13:57 57.21335 65.89709 8367 ft 300 kts 213°
2026-05-05 13:57 57.19466 65.88036 7951 ft 300 kts 194°
2026-05-05 13:58 57.17398 65.87756 7548 ft 299 kts 177°
2026-05-05 13:58 57.15322 65.87961 7146 ft 298 kts 175°
2026-05-05 13:58 57.13254 65.88201 6756 ft 297 kts 175°
2026-05-05 13:58 57.11216 65.88426 6370 ft 297 kts 177°
2026-05-05 13:59 57.07530 65.85700 5538 ft 292 kts 232°
2026-05-05 13:59 57.06629 65.82435 5126 ft 285 kts 261°
2026-05-05 14:00 57.06790 65.75319 4313 ft 277 kts 279°
2026-05-05 14:00 57.06913 65.72993 4100 ft 275 kts 275°
2026-05-05 14:00 57.06957 65.68398 3820 ft 263 kts 273°
2026-05-05 14:00 57.06957 65.65134 3612 ft 255 kts 272°
2026-05-05 14:01 57.06951 65.61918 3408 ft 248 kts 272°
2026-05-05 14:01 57.06945 65.58789 3210 ft 241 kts 272°
2026-05-05 14:01 57.07095 65.55790 3063 ft 230 kts 289°
2026-05-05 14:01 57.07763 65.53247 2944 ft 216 kts 309°
2026-05-05 14:02 57.08773 65.51252 2714 ft 211 kts 317°
2026-05-05 14:02 57.09799 65.49368 2443 ft 206 kts 317°
2026-05-05 14:02 57.10796 65.47532 2164 ft 199 kts 316°
2026-05-05 14:02 57.11730 65.45808 1921 ft 181 kts 316°
2026-05-05 14:03 57.12583 65.44232 1684 ft 168 kts 316°
2026-05-05 14:03 57.13374 65.42769 1450 ft 159 kts 315°
2026-05-05 14:03 57.14134 65.41362 1248 ft 152 kts 315°
2026-05-05 14:03 57.14870 65.39987 1031 ft 150 kts 315°
2026-05-05 14:04 57.15610 65.38638 824 ft 150 kts 316°
2026-05-05 14:04 57.16346 65.37278 640 ft 150 kts 314°
2026-05-05 14:04 57.17077 65.35910 435 ft 150 kts 314°
2026-05-05 14:04 57.17800 65.34565 350 ft 139 kts 314°
2026-05-05 14:05 57.18371 65.33505 337 ft 92 kts 315°
2026-05-05 14:05 57.18725 65.32854 330 ft 63 kts 315°
2026-05-05 14:05 57.18932 65.32459 331 ft 15 kts 316°
2026-05-05 14:05 57.19015 65.32466 335 ft 11 kts 41°
2026-05-05 14:06 57.19056 65.32540 337 ft 6 kts 45°
2026-05-05 14:06 57.19081 65.32587 336 ft 4 kts 47°
2026-05-05 14:06 57.19104 65.32671 340 ft 12 kts 91°
2026-05-05 14:06 57.19029 65.32831 336 ft 20 kts 134°
2026-05-05 14:07 57.18915 65.33045 338 ft 26 kts 134°
2026-05-05 14:07 57.18775 65.33306 339 ft 31 kts 135°
2026-05-05 14:07 57.18611 65.33615 340 ft 36 kts 134°
2026-05-05 14:07 57.18426 65.33956 337 ft 39 kts 135°
2026-05-05 14:08 57.18225 65.34329 339 ft 42 kts 135°
2026-05-05 14:08 57.18045 65.34660 338 ft 18 kts 134°
2026-05-05 14:08 57.18029 65.34693 339 ft 0 kts 133°
2026-05-05 14:09 57.18027 65.34697 339 ft 2 kts 133°
2026-05-05 14:09 57.17998 65.34751 339 ft 9 kts 135°
2026-05-05 14:09 57.17982 65.34840 338 ft 7 kts 65°
2026-05-05 14:09 57.18012 65.34898 340 ft 6 kts 44°
2026-05-05 14:10 57.18020 65.34912 340 ft 0 kts 44°